Weather in Velikopolye

Russia / Smolensk Oblast     54°53′04″N   34°28′49″E
temp.,
°C
wind,
m/s
gust,
m/s
humid.,
%
clouds,
%
prec.,
mm/h
press.,
hPa
HPBL,
m
13 april, tue
tue1300:00+9e31094100 0.0 1023224
03:00+8ese359480 0.0 102290
06:00+7se2392100 0.0 102348
09:00+12sse3775100 0.0 1023281
12:00+18sse465396 0.0 1022762
15:00+19sse584670 0.0 10211702
18:00+18sse495252 0.0 1019377
21:00+12sse397299 0.0 1020153
14 april, wed
wed1400:00+10se227894 0.0 102026
03:00+11se3117488 0.0 1019277
06:00+9se398997 0.0 1018201
09:00+12sse4878100 0.0 1018394
12:00+14s367398 0.0 1018604
15:00+16s4659100 1.2 10161235
18:00+13s2275100 0.5 101629
21:00+11ssw1283100 0.5 101717
15 april, thu
thu1500:00+9wsw0087100 0.0 101710
03:00+9e2285100 0.0 101713
06:00+8nne2287100 0.0 101626
09:00+12ese2476100 0.0 1017286
12:00+15ese2362100 0.3 1016722
15:00+11wsw3584100 0.9 1016188
18:00+11nnw2287100 1.2 101642
21:00
16 april, fri
fri1600:00+9ne41084100 0.0 1016229
03:00+8nne4990100 0.1 1016216
06:00+8ene51288100 0.0 1016530
09:00+9ene51284100 0.1 1017625
12:00+14e6106297 0.1 10171180
15:00+16ene7105399 0.1 10171509
18:00+14ene7116264 0.0 10181072
21:00+10ne6137896 0.7 1021519
17 april, sat
sat1700:00+9ene51278100 0.0 1021640
03:00+9ene61277100 0.0 1021745
06:00+7ne5108186 0.0 1023632
09:00+7ne5127592 0.0 1024598
12:00+12ene685443 0.0 10251294
15:00+13ene68405 0.0 10251528
18:00+12ne69455 0.0 10261144
21:00+8ne512595 0.0 1028345